{"data":{"norad_id":46723,"epoch":"2026-05-25T01:22:12.511200Z","epoch_age_seconds":77260,"freshness":"FRESH","line1":"1 46723U 20073BF  26145.05708925  .00105205  00000+0  69223-3 0  9995","line2":"2 46723  53.0425 164.0138 0007988  46.6163 313.5520 15.74854007309972","mean_motion":15.74854007,"eccentricity":0.0007988,"inclination_deg":53.0425,"raan_deg":164.0138,"arg_perigee_deg":46.6163,"mean_anomaly_deg":313.552,"bstar":0.00069223,"rev_number":30997,"period_min":91.437047091312,"perigee_km":339.67617444052,"apogee_km":350.41713264542,"semimajor_km":6723.183653543,"source":"CELESTRAK","updated_at":"2026-05-25T13:38:16.518138Z"}}